1509231600.74,35801,9.13,72092.3,-6.57,-7.15,-7.11,0,*5F
1509231601.94,35802,9.13,72116.5,-6.59,-7.15,-7.15,0,*56
1509231603.17,35803,9.13,72106.3,-6.57,-7.23,-7.15,0,*5C
1509231604.4,35804,9.13,72116.8,-6.57,-7.15,-7.15,0,*5E
1509231605.64,35805,9.13,72114.3,-6.57,-7.11,-7.15,0,*5B
1509231606.87,35806,9.13,72094.0,-6.57,-7.11,-7.23,0,*5D
1509231608.07,35807,9.13,72114.3,-6.59,-7.23,-7.15,0,*56
1509231609.28,35808,9.13,72094.5,-6.59,-7.15,-7.15,0,*5C
1509231610.51,35809,9.13,72092.5,-6.57,-7.23,-7.15,0,*56
1509231611.71,35810,9.13,72098.8,-6.59,-7.15,-7.11,0,*51
1509231612.95,35811,9.13,72112.3,-6.57,-7.23,-7.11,0,*5B
1509231614.18,35812,9.13,72114.5,-6.57,-7.23,-7.11,0,*58
1509231615.41,35813,9.13,72108.8,-6.57,-7.15,-7.11,0,*5C
1509231616.64,35814,9.13,72118.5,-6.57,-7.23,-7.15,0,*5A
1509231617.85,35815,9.13,72112.3,-6.59,-7.23,-7.15,0,*55
1509231619.08,35816,9.13,72092.0,-6.57,-7.23,-7.11,0,*5C
1509231620.31,35817,9.13,72054.5,-6.57,-7.15,-7.15,0,*5C
1509231621.54,35818,9.13,72048.8,-6.57,-7.15,-7.15,0,*53
1509231622.77,35819,9.13,72084.8,-6.57,-7.15,-7.15,0,*52
1509231624.0,35820,9.13,72088.3,-6.57,-7.23,-7.11,0,*59
1509231625.23,35821,9.13,72102.3,-6.57,-7.23,-7.23,0,*59
1509231626.46,35822,9.13,72108.0,-6.57,-7.15,-7.15,0,*5A
1509231627.69,35823,9.13,72084.0,-6.57,-7.15,-7.15,0,*5B
1509231628.9,35824,9.13,72118.8,-6.59,-7.15,-7.15,0,*52
1509231630.13,35825,9.13,72106.3,-6.57,-7.15,-7.23,0,*58
1509231631.36,35826,9.13,72092.8,-6.57,-7.23,-7.15,0,*5B
1509231632.59,35827,9.13,72076.5,-6.57,-7.15,-7.15,0,*5F
1509231633.82,35828,9.13,72108.3,-6.57,-7.23,-7.15,0,*55
1509231635.05,35829,9.13,72110.3,-6.57,-7.23,-7.23,0,*51
1509231636.28,35830,9.13,72108.5,-6.57,-7.23,-7.15,0,*5C
1509231637.53,35831,9.13,72108.3,-6.57,-7.27,-7.23,0,*5C
1509231638.78,35832,9.13,72118.0,-6.57,-7.27,-7.15,0,*5A
1509231640.01,35833,9.13,72120.8,-6.57,-7.15,-7.15,0,*5A
1509231641.25,35834,9.13,72112.5,-6.57,-7.23,-7.23,0,*5D
1509231642.48,35835,9.13,72102.0,-6.57,-7.15,-7.15,0,*5C
1509231643.71,35836,9.13,72104.3,-6.57,-7.15,-7.23,0,*5A
1509231644.91,35837,9.13,72096.3,-6.59,-7.23,-7.15,0,*55
1509231646.14,35838,9.13,72094.3,-6.57,-7.23,-7.15,0,*54
1509231647.37,35839,9.13,72096.0,-6.57,-7.23,-7.23,0,*50
1509231648.6,35840,9.13,72090.0,-6.57,-7.15,-7.15,0,*5E
1509231649.83,35841,9.13,72102.0,-6.57,-7.15,-7.15,0,*5F
1509231651.06,35842,9.13,72104.3,-6.57,-7.15,-7.15,0,*5C
1509231652.29,35843,9.13,72102.8,-6.57,-7.15,-7.15,0,*5D
1509231653.52,35844,9.13,72108.3,-6.57,-7.15,-7.15,0,*5A
1509231654.73,35845,9.13,72110.8,-6.59,-7.15,-7.15,0,*55
1509231655.96,35846,9.13,72116.5,-6.57,-7.15,-7.11,0,*5C
1509231657.16,35847,9.13,72130.5,-6.59,-7.15,-7.15,0,*57
1509231658.37,35848,9.13,72120.5,-6.59,-7.15,-7.15,0,*58
1509231659.6,35849,9.13,72106.3,-6.57,-7.15,-7.11,0,*53
1509231660.81,35850,9.13,72106.0,-6.59,-7.15,-7.23,0,*54
1509231662.04,35851,9.13,72108.3,-6.57,-7.15,-7.23,0,*5B
1509231663.27,35852,9.13,72092.3,-6.57,-7.15,-7.23,0,*58
1509231664.5,35853,9.13,72096.0,-6.57,-7.15,-7.11,0,*58
1509231665.71,35854,9.13,72104.8,-6.59,-7.23,-7.15,0,*50
1509231666.91,35855,9.13,72120.3,-6.59,-7.23,-7.15,0,*51
1509231668.11,35856,9.13,72120.0,-6.59,-7.23,-7.15,0,*52
1509231669.34,35857,9.13,72116.0,-6.57,-7.23,-7.15,0,*5D
1509231670.55,35858,9.13,72106.5,-6.59,-7.15,-7.15,0,*59
1509231671.78,35859,9.13,72102.8,-6.57,-7.15,-7.11,0,*52
1509231673.01,35860,9.13,72100.0,-6.57,-7.23,-7.23,0,*5C
1509231674.25,35861,9.13,72106.3,-6.57,-7.23,-7.11,0,*5C
1509231675.48,35862,9.13,72064.0,-6.57,-7.15,-7.15,0,*5E
1509231676.71,35863,9.13,72060.3,-6.57,-7.15,-7.15,0,*5F
1509231677.94,35864,9.06,72096.5,-6.57,-7.15,-7.15,0,*58
1509231679.17,35865,9.13,72096.5,-6.57,-7.23,-7.15,0,*5C
1509231680.4,35866,9.13,72086.5,-6.57,-7.23,-7.15,0,*5F
1509231681.62,35867,9.13,72062.8,-6.57,-7.15,-7.15,0,*5B
1509231682.86,35868,9.13,72068.5,-6.57,-7.15,-7.15,0,*54
1509231684.09,35869,9.13,72076.3,-6.57,-7.15,-7.15,0,*55
1509231685.32,35870,9.13,72076.0,-6.57,-7.15,-7.23,0,*58
1509231686.55,35871,9.13,72098.0,-6.57,-7.23,-7.15,0,*59
1509231687.78,35872,9.13,72110.0,-6.57,-7.15,-7.23,0,*5A
1509231689.01,35873,9.13,72116.5,-6.57,-7.15,-7.23,0,*5B
1509231690.22,35874,9.13,72096.3,-6.59,-7.23,-7.23,0,*57
1509231691.45,35875,9.13,72072.8,-6.57,-7.15,-7.23,0,*5D
1509231692.68,35876,9.13,72098.0,-6.57,-7.23,-7.15,0,*5E
1509231693.91,35877,9.13,72126.0,-6.57,-7.15,-7.15,0,*5A
1509231695.14,35878,9.13,72128.0,-6.57,-7.11,-7.15,0,*51
1509231696.37,35879,9.13,72120.5,-6.57,-7.23,-7.15,0,*51
1509231697.6,35880,9.13,72110.0,-6.57,-7.23,-7.23,0,*52
1509231698.83,35881,9.13,72080.5,-6.57,-7.23,-7.15,0,*56
1509231700.09,35882,9.13,72084.0,-6.57,-7.15,-7.27,0,*51
1509231701.3,35883,9.13,72088.0,-6.59,-7.11,-7.15,0,*5B
1509231702.53,35884,9.13,72096.3,-6.57,-7.15,-7.23,0,*53
1509231703.76,35885,9.13,72110.3,-6.57,-7.15,-7.15,0,*57
1509231704.96,35886,9.13,72126.5,-6.59,-7.15,-7.15,0,*5A
1509231706.17,35887,9.06,72106.8,-6.59,-7.15,-7.15,0,*5B
1509231707.4,35888,9.13,72110.0,-6.57,-7.15,-7.23,0,*5F
1509231708.63,35889,9.13,72104.8,-6.57,-7.11,-7.15,0,*5F
1509231709.86,35890,9.13,72096.0,-6.57,-7.15,-7.23,0,*56
1509231711.07,35891,9.13,72092.3,-6.59,-7.15,-7.11,0,*58
1509231712.3,35892,9.13,72086.8,-6.57,-7.15,-7.11,0,*55
1509231713.53,35893,9.13,72090.0,-6.57,-7.15,-7.15,0,*50
1509231714.77,35894,9.13,72088.5,-6.57,-7.23,-7.11,0,*56
1509231716.0,35895,9.13,72096.0,-6.57,-7.15,-7.15,0,*56
1509231717.23,35896,9.13,72122.8,-6.57,-7.15,-7.15,0,*55
1509231718.46,35897,9.06,72130.3,-6.57,-7.15,-7.15,0,*54
1509231719.69,35898,9.13,72130.8,-6.57,-7.23,-7.23,0,*5B
1509231720.92,35899,9.13,72156.0,-6.57,-7.11,-7.23,0,*5B
1509231722.15,35900,9.13,72136.8,-6.57,-7.23,-7.23,0,*5B
1509231723.41,35901,9.13,72100.0,-6.57,-7.27,-7.15,0,*5B
1509231724.64,35902,9.13,72100.3,-6.57,-7.23,-7.15,0,*5C
1509231725.87,35903,9.13,72100.8,-6.57,-7.15,-7.11,0,*5C
1509231727.1,35904,9.13,72098.0,-6.57,-7.23,-7.23,0,*5F
1509231728.33,35905,9.13,72094.8,-6.57,-7.23,-7.15,0,*5B
1509231729.56,35906,9.13,72100.8,-6.57,-7.23,-7.15,0,*58
1509231730.79,35907,9.13,72112.8,-6.57,-7.15,-7.23,0,*59
1509231732.02,35908,9.13,72112.8,-6.57,-7.23,-7.23,0,*53
1509231733.28,35909,9.13,72108.3,-6.57,-7.27,-7.23,0,*56
1509231734.51,35910,9.13,72100.5,-6.57,-7.23,-7.15,0,*5F
1509231735.74,35911,9.13,72076.3,-6.57,-7.23,-7.15,0,*5E
1509231736.94,35912,9.13,72082.3,-6.59,-7.15,-7.23,0,*53
1509231738.17,35913,9.13,72114.5,-6.57,-7.15,-7.23,0,*5C
1509231739.4,35914,9.13,72110.8,-6.57,-7.15,-7.15,0,*5E
1509231740.63,35915,9.13,72110.0,-6.57,-7.23,-7.15,0,*5A
1509231741.86,35916,9.13,72136.8,-6.57,-7.23,-7.15,0,*59
1509231743.1,35917,9.13,72098.5,-6.57,-7.23,-7.11,0,*5C
1509231744.32,35918,9.13,72134.8,-6.59,-7.23,-7.27,0,*58
1509231745.55,35919,9.13,72138.5,-6.57,-7.23,-7.15,0,*56
1509231746.76,35920,9.13,72142.8,-6.59,-7.23,-7.15,0,*52
1509231747.96,35921,9.13,72144.0,-6.59,-7.23,-7.15,0,*53
1509231749.19,35922,9.13,72138.0,-6.57,-7.23,-7.23,0,*5B
1509231750.4,35923,9.13,72134.0,-6.59,-7.23,-7.23,0,*54
1509231751.65,35924,9.13,72132.0,-6.57,-7.15,-7.27,0,*5C
1509231752.86,35925,9.13,72112.8,-6.59,-7.15,-7.15,0,*52
1509231754.09,35926,9.13,72086.3,-6.57,-7.23,-7.15,0,*5A
1509231755.32,35927,9.13,72024.0,-6.57,-7.23,-7.15,0,*5B
1509231756.55,35928,9.13,72078.8,-6.57,-7.23,-7.15,0,*54
1509231757.78,35929,9.13,72106.8,-6.57,-7.15,-7.23,0,*55
1509231759.01,35930,9.13,72124.8,-6.57,-7.15,-7.23,0,*5D
1509231760.24,35931,9.13,72124.3,-6.57,-7.23,-7.23,0,*59
1509231761.47,35932,9.13,72124.0,-6.57,-7.15,-7.15,0,*5A
1509231762.7,35933,9.13,72110.3,-6.57,-7.23,-7.23,0,*5B
1509231763.91,35934,9.13,72098.0,-6.59,-7.23,-7.23,0,*52
1509231765.14,35935,9.13,72086.3,-6.57,-7.23,-7.23,0,*5D
1509231766.37,35936,9.13,72088.3,-6.57,-7.23,-7.23,0,*5E
1509231767.6,35937,9.13,72102.0,-6.57,-7.23,-7.23,0,*5F
1509231768.81,35938,9.13,72102.3,-6.59,-7.23,-7.23,0,*5E
1509231770.04,35939,9.13,72110.0,-6.57,-7.23,-7.15,0,*54
1509231771.27,35940,9.13,72108.8,-6.57,-7.23,-7.23,0,*5F
1509231772.5,35941,9.13,72114.3,-6.59,-7.27,-7.23,0,*54
1509231773.73,35942,9.13,72104.5,-6.57,-7.23,-7.15,0,*58
1509231774.98,35943,9.13,72082.0,-6.57,-7.27,-7.15,0,*5D
1509231776.21,35944,9.13,72086.5,-6.57,-7.23,-7.15,0,*5E
1509231777.44,35945,9.06,72078.8,-6.57,-7.23,-7.15,0,*5F
1509231778.67,35946,9.13,72098.8,-6.57,-7.15,-7.15,0,*59
1509231779.92,35947,9.13,72104.3,-6.57,-7.27,-7.23,0,*5C
1509231781.17,35948,9.13,72106.5,-6.57,-7.27,-7.15,0,*56
1509231782.43,35949,9.13,72106.3,-6.57,-7.27,-7.15,0,*57
1509231783.63,35950,9.13,72108.3,-6.59,-7.23,-7.15,0,*55
1509231784.83,35951,9.13,72112.5,-6.59,-7.23,-7.23,0,*51
1509231786.07,35952,9.13,72134.0,-6.57,-7.23,-7.23,0,*5C
1509231787.3,35953,9.13,72130.5,-6.57,-7.15,-7.23,0,*58
1509231788.53,35954,9.13,72116.0,-6.57,-7.23,-7.23,0,*5A
1509231789.76,35955,9.13,72108.0,-6.57,-7.23,-7.23,0,*5B
1509231791.02,35956,9.13,72100.0,-6.57,-7.23,-7.27,0,*5C
1509231792.25,35957,9.13,72092.3,-6.57,-7.15,-7.23,0,*5C
1509231793.48,35958,9.13,72086.5,-6.57,-7.23,-7.15,0,*53
1509231794.71,35959,9.13,72084.5,-6.57,-7.23,-7.23,0,*57
1509231795.94,35960,9.13,72080.0,-6.57,-7.23,-7.15,0,*58
1509231797.19,35961,9.13,72038.0,-6.57,-7.27,-7.23,0,*58
1509231798.45,35962,9.13,72070.0,-6.57,-7.23,-7.27,0,*5B
1509231799.68,35963,9.13,72062.3,-6.57,-7.23,-7.23,0,*5E
1509231800.91,35964,9.13,72064.8,-6.57,-7.23,-7.15,0,*5C
1509231802.14,35965,9.13,72062.3,-6.57,-7.15,-7.23,0,*5D
1509231803.37,35966,9.13,72064.8,-6.57,-7.23,-7.23,0,*5B
1509231804.6,35967,9.13,72072.3,-6.57,-7.23,-7.23,0,*5A
1509231805.81,35968,9.13,72070.3,-6.59,-7.23,-7.23,0,*5B
1509231807.04,35969,9.13,72076.5,-6.57,-7.23,-7.15,0,*51
1509231808.27,35970,9.13,72084.0,-6.57,-7.23,-7.15,0,*59
1509231809.5,35971,9.13,72110.0,-6.57,-7.23,-7.11,0,*5C
1509231810.73,35972,9.13,72090.3,-6.57,-7.23,-7.23,0,*5E
1509231811.94,35973,9.13,72086.8,-6.59,-7.23,-7.23,0,*51
1509231813.17,35974,9.13,72110.3,-6.57,-7.23,-7.23,0,*58
1509231814.4,35975,9.13,72098.5,-6.57,-7.23,-7.23,0,*59
1509231815.63,35976,9.13,72072.5,-6.59,-7.27,-7.15,0,*55
1509231816.88,35977,9.13,72080.5,-6.57,-7.27,-7.15,0,*5A
1509231818.13,35978,9.13,72086.8,-6.57,-7.27,-7.23,0,*50
1509231819.39,35979,9.13,72086.8,-6.57,-7.23,-7.27,0,*51
1509231820.61,35980,9.13,72098.0,-6.59,-7.27,-7.15,0,*5C
1509231821.84,35981,9.13,72110.5,-6.57,-7.23,-7.23,0,*52
1509231823.08,35982,9.13,72110.8,-6.57,-7.23,-7.23,0,*51
1509231824.31,35983,9.13,72106.0,-6.57,-7.23,-7.23,0,*50
1509231825.56,35984,9.13,72112.3,-6.57,-7.27,-7.23,0,*53
1509231826.79,35985,9.13,72118.3,-6.57,-7.23,-7.15,0,*53
1509231828.02,35986,9.13,72106.5,-6.57,-7.23,-7.23,0,*55
1509231829.25,35987,9.13,72116.3,-6.57,-7.23,-7.23,0,*54
1509231830.49,35988,9.13,72098.0,-6.57,-7.15,-7.23,0,*5E
1509231831.72,35989,9.13,72100.8,-6.57,-7.23,-7.23,0,*5A
1509231832.92,35990,9.13,72106.5,-6.59,-7.23,-7.15,0,*59
1509231834.15,35991,9.13,72100.3,-6.57,-7.23,-7.23,0,*53
1509231835.36,35992,9.13,72114.3,-6.59,-7.23,-7.15,0,*5B
1509231836.59,35993,9.13,72092.3,-6.59,-7.27,-7.23,0,*5B
1509231837.79,35994,9.13,72074.5,-6.59,-7.23,-7.23,0,*58
1509231839.02,35995,9.13,72098.3,-6.57,-7.23,-7.15,0,*52
1509231840.27,35996,9.13,72122.5,-6.57,-7.27,-7.23,0,*50
1509231841.48,35997,9.13,72122.5,-6.59,-7.23,-7.23,0,*5B
1509231842.71,35998,9.13,72140.0,-6.57,-7.23,-7.23,0,*5A
1509231843.97,35999,9.13,72136.0,-6.57,-7.15,-7.27,0,*5A
1509231845.17,36000,9.13,72124.5,-6.59,-7.23,-7.23,0,*5F
1509231846.4,36001,9.13,72102.3,-6.57,-7.23,-7.15,0,*55
1509231847.61,36002,9.13,72114.8,-6.59,-7.23,-7.15,0,*58
1509231848.81,36003,9.13,72100.8,-6.59,-7.23,-7.15,0,*59
1509231850.04,36004,9.13,72102.8,-6.57,-7.23,-7.15,0,*50
1509231851.24,36005,9.13,72098.8,-6.59,-7.23,-7.23,0,*5A
1509231852.47,36006,9.13,72110.5,-6.57,-7.15,-7.15,0,*57
1509231853.7,36007,9.13,72112.5,-6.57,-7.23,-7.15,0,*53
1509231854.93,36008,9.13,72126.8,-6.57,-7.23,-7.15,0,*5C
1509231856.16,36009,9.13,72122.3,-6.57,-7.23,-7.23,0,*58
1509231857.37,36010,9.13,72118.8,-6.59,-7.23,-7.23,0,*5E
1509231858.6,36011,9.13,72112.0,-6.57,-7.23,-7.23,0,*51
1509231859.83,36012,9.13,72112.5,-6.57,-7.23,-7.23,0,*52
1509231861.04,36013,9.13,72132.3,-6.59,-7.23,-7.23,0,*5D
1509231862.27,36014,9.13,72130.5,-6.57,-7.23,-7.15,0,*51
1509231863.5,36015,9.13,72128.0,-6.57,-7.15,-7.15,0,*55
1509231864.7,36016,9.13,72112.0,-6.59,-7.15,-7.15,0,*58
1509231865.94,36017,9.13,72112.8,-6.57,-7.15,-7.23,0,*52
1509231867.14,36018,9.13,72100.0,-6.59,-7.15,-7.23,0,*53
1509231868.35,36019,9.13,72092.5,-6.59,-7.23,-7.23,0,*57
1509231869.58,36020,9.13,72094.5,-6.57,-7.15,-7.23,0,*56
1509231870.78,36021,9.13,72096.8,-6.59,-7.15,-7.15,0,*5C
1509231872.01,36022,9.13,72106.5,-6.57,-7.15,-7.15,0,*51
1509231873.22,36023,9.13,72106.8,-6.59,-7.23,-7.23,0,*5E
1509231874.45,36024,9.13,72080.3,-6.57,-7.23,-7.23,0,*57
1509231875.7,36025,9.13,72076.8,-6.57,-7.27,-7.15,0,*57
1509231876.91,36026,9.13,72078.8,-6.59,-7.23,-7.15,0,*5E
1509231878.11,36027,9.13,72088.3,-6.59,-7.15,-7.23,0,*5F
1509231879.34,36028,9.13,72092.5,-6.57,-7.15,-7.23,0,*5E
1509231880.58,36029,9.13,72076.3,-6.57,-7.15,-7.23,0,*5F
1509231881.78,36030,9.13,72062.3,-6.59,-7.15,-7.23,0,*59
1509231882.99,36031,9.13,72076.3,-6.59,-7.23,-7.23,0,*5D
1509231884.19,36032,9.13,72088.3,-6.59,-7.23,-7.23,0,*5E
1509231885.4,36033,9.13,72096.0,-6.59,-7.23,-7.15,0,*5A
1509231886.63,36034,9.13,72084.3,-6.57,-7.23,-7.15,0,*53
1509231887.86,36035,9.13,72088.5,-6.57,-7.23,-7.15,0,*52
1509231889.06,36036,9.13,72022.8,-6.59,-7.23,-7.15,0,*5F
1509231890.29,36037,9.13,72032.5,-6.57,-7.15,-7.15,0,*55
1509231891.49,36038,9.13,72056.5,-6.59,-7.23,-7.15,0,*51
1509231892.7,36039,9.13,72058.5,-6.59,-7.23,-7.15,0,*50
1509231893.9,36040,9.13,72090.8,-6.59,-7.23,-7.23,0,*5B
1509231895.13,36041,9.13,72112.0,-6.57,-7.15,-7.15,0,*54
1509231896.38,36042,9.13,72126.8,-6.57,-7.27,-7.15,0,*56
1509231897.62,36043,9.13,72102.0,-6.57,-7.23,-7.23,0,*56
1509231898.82,36044,9.13,72114.3,-6.59,-7.23,-7.23,0,*5F
1509231900.05,36045,9.13,72100.5,-6.57,-7.23,-7.15,0,*55
1509231901.28,36046,9.13,72096.8,-6.57,-7.23,-7.15,0,*56
1509231902.51,36047,9.13,72098.0,-6.57,-7.15,-7.23,0,*57
1509231903.74,36048,9.13,72098.8,-6.57,-7.23,-7.15,0,*58
1509231904.98,36049,9.13,72090.3,-6.57,-7.23,-7.11,0,*5D
1509231906.18,36050,9.13,72098.8,-6.59,-7.23,-7.15,0,*5F
1509231907.43,36051,9.13,72054.8,-6.57,-7.23,-7.27,0,*51
1509231908.66,36052,9.13,72086.8,-6.57,-7.15,-7.23,0,*53
1509231909.89,36053,9.13,72066.8,-6.59,-7.27,-7.15,0,*58
1509231911.09,36054,9.13,72056.3,-6.59,-7.15,-7.15,0,*5E
1509231912.3,36055,9.13,72064.8,-6.59,-7.23,-7.23,0,*5F
1509231913.5,36056,9.13,72046.5,-6.59,-7.23,-7.15,0,*59
1509231914.71,36057,9.13,72060.5,-6.59,-7.15,-7.23,0,*58
1509231915.92,36058,9.13,72048.5,-6.59,-7.23,-7.23,0,*52
1509231917.12,36059,9.13,72062.5,-6.59,-7.23,-7.23,0,*53
1509231918.33,36060,9.13,72080.3,-6.59,-7.23,-7.23,0,*59
1509231919.53,36061,9.13,72108.5,-6.59,-7.23,-7.15,0,*5D
1509231920.76,36062,9.13,72098.0,-6.57,-7.23,-7.15,0,*50
1509231921.97,36063,9.13,72110.0,-6.59,-7.23,-7.23,0,*5A
1509231923.17,36064,9.13,72100.5,-6.59,-7.15,-7.23,0,*58
1509231924.4,36065,9.13,72086.8,-6.57,-7.23,-7.15,0,*57
1509231925.61,36066,9.13,72082.8,-6.59,-7.23,-7.15,0,*5A
1509231926.84,36067,9.13,72074.0,-6.57,-7.15,-7.15,0,*50
1509231928.07,36068,9.13,72056.5,-6.57,-7.23,-7.15,0,*5A
1509231929.3,36069,9.13,72078.0,-6.57,-7.23,-7.11,0,*5F
1509231930.5,36070,9.13,72072.8,-6.59,-7.23,-7.23,0,*58
1509231931.71,36071,9.13,72098.5,-6.59,-7.23,-7.23,0,*59
1509231932.94,36072,9.13,72112.3,-6.57,-7.23,-7.15,0,*51
1509231934.17,36073,9.13,72122.0,-6.57,-7.23,-7.15,0,*50
1509231935.39,36074,9.13,72132.0,-6.59,-7.27,-7.15,0,*5D
1509231936.6,36075,9.13,72118.0,-6.59,-7.15,-7.15,0,*5D
1509231937.83,36076,9.13,72118.3,-6.57,-7.15,-7.15,0,*50
1509231939.04,36077,9.13,72112.8,-6.59,-7.15,-7.11,0,*5B
1509231940.24,36078,9.13,72116.0,-6.59,-7.15,-7.11,0,*54
1509231941.47,36079,9.13,72120.0,-6.59,-7.27,-7.15,0,*50
1509231942.7,36080,9.13,72122.5,-6.57,-7.15,-7.15,0,*59
1509231943.93,36081,9.13,72130.5,-6.57,-7.15,-7.15,0,*58
1509231945.16,36082,9.13,72124.8,-6.57,-7.15,-7.23,0,*5E
1509231946.39,36083,9.13,72130.0,-6.57,-7.23,-7.23,0,*5A
1509231947.62,36084,9.13,72132.8,-6.59,-7.23,-7.27,0,*57
1509231948.85,36085,9.13,72116.8,-6.57,-7.15,-7.23,0,*59
1509231950.06,36086,9.13,72122.5,-6.59,-7.15,-7.23,0,*54
1509231951.26,36087,9.13,72100.5,-6.59,-7.23,-7.15,0,*55
1509231952.47,36088,9.13,72114.0,-6.59,-7.23,-7.15,0,*5A
1509231953.7,36089,9.13,72104.5,-6.57,-7.23,-7.15,0,*55
1509231954.93,36090,9.13,72130.0,-6.57,-7.15,-7.15,0,*58
1509231956.13,36091,9.13,72138.0,-6.59,-7.23,-7.15,0,*52
1509231957.36,36092,9.13,72106.8,-6.57,-7.23,-7.15,0,*5F
1509231958.59,36093,9.13,72118.0,-6.57,-7.23,-7.15,0,*5E
1509231959.82,36094,9.13,72138.0,-6.57,-7.15,-7.11,0,*58
1509231961.03,36095,9.13,72138.5,-6.59,-7.15,-7.11,0,*57
1509231962.23,36096,9.13,72132.3,-6.59,-7.15,-7.15,0,*50
1509231963.44,36097,9.13,72132.0,-6.59,-7.23,-7.15,0,*54
1509231964.64,36098,9.13,72112.0,-6.59,-7.23,-7.11,0,*5F
1509231965.87,36099,9.13,72106.3,-6.57,-7.23,-7.15,0,*54
1509231967.1,36100,9.13,72104.8,-6.57,-7.23,-7.15,0,*55
1509231968.33,36101,9.13,72096.0,-6.57,-7.23,-7.15,0,*54
1509231969.56,36102,9.13,72096.5,-6.57,-7.23,-7.15,0,*57
1509231970.76,36103,9.13,72074.0,-6.59,-7.23,-7.15,0,*58
1509231971.97,36104,9.13,72094.3,-6.59,-7.11,-7.15,0,*5E
1509231973.18,36105,9.13,72100.8,-6.59,-7.23,-7.15,0,*5E
1509231974.4,36106,9.13,72112.5,-6.57,-7.15,-7.15,0,*56
1509231975.61,36107,9.13,72112.3,-6.59,-7.15,-7.15,0,*59
1509231976.81,36108,9.13,72118.0,-6.59,-7.15,-7.23,0,*53
1509231978.05,36109,9.13,72118.8,-6.57,-7.15,-7.23,0,*5C
1509231979.25,36110,9.13,72120.5,-6.59,-7.23,-7.23,0,*5F
1509231980.48,36111,9.13,72128.3,-6.57,-7.23,-7.15,0,*55
1509231981.71,36112,9.13,72124.3,-6.57,-7.23,-7.15,0,*56
1509231982.94,36113,9.13,72124.0,-6.59,-7.27,-7.15,0,*5D
1509231984.17,36114,9.13,72134.8,-6.57,-7.15,-7.15,0,*55
1509231985.4,36115,9.13,72130.5,-6.57,-7.15,-7.15,0,*54
1509231986.6,36116,9.13,72102.8,-6.59,-7.15,-7.15,0,*59
1509231987.83,36117,9.13,72076.5,-6.57,-7.15,-7.23,0,*53
1509231989.06,36118,9.13,72074.5,-6.57,-7.15,-7.23,0,*5C
1509231990.27,36119,9.13,72076.8,-6.59,-7.15,-7.15,0,*56
1509231991.5,36120,9.13,72080.8,-6.57,-7.15,-7.15,0,*52
1509231992.73,36121,9.13,72064.3,-6.57,-7.15,-7.15,0,*53
1509231993.94,36122,9.13,72080.0,-6.59,-7.23,-7.11,0,*5F
1509231995.17,36123,9.13,72086.5,-6.57,-7.23,-7.11,0,*50
1509231996.37,36124,9.13,72076.8,-6.59,-7.15,-7.15,0,*58
1509231997.6,36125,9.13,72068.5,-6.57,-7.15,-7.15,0,*57
1509231998.84,36126,9.13,72076.5,-6.57,-7.11,-7.15,0,*50
1509232000.04,36127,9.13,72064.3,-6.59,-7.15,-7.15,0,*5B
1509232001.24,36128,9.13,72082.0,-6.59,-7.23,-7.15,0,*51
1509232002.47,36129,9.13,72028.3,-6.57,-7.15,-7.15,0,*5B
1509232003.68,36130,9.13,72040.8,-6.59,-7.23,-7.11,0,*5C
1509232004.88,36131,9.13,72058.3,-6.59,-7.15,-7.15,0,*5C
1509232006.11,36132,9.13,72068.5,-6.57,-7.15,-7.15,0,*51
1509232007.35,36133,9.13,72110.8,-6.57,-7.15,-7.23,0,*55
1509232008.58,36134,9.13,72096.8,-6.57,-7.15,-7.15,0,*57
1509232009.81,36135,9.13,72092.3,-6.57,-7.15,-7.15,0,*56
1509232011.04,36136,9.13,72098.3,-6.57,-7.23,-7.23,0,*55
1509232012.27,36137,9.13,72088.5,-6.57,-7.15,-7.23,0,*51
1509232013.48,36138,9.13,72078.8,-6.59,-7.11,-7.23,0,*54
1509232014.7,36139,9.13,72074.5,-6.59,-7.27,-7.15,0,*55
1509232015.91,36140,9.13,72084.0,-6.59,-7.23,-7.15,0,*5F
1509232017.11,36141,9.13,72090.0,-6.59,-7.23,-7.15,0,*5E
1509232018.34,36142,9.13,72104.3,-6.57,-7.15,-7.15,0,*56
1509232019.57,36143,9.13,72104.5,-6.57,-7.15,-7.15,0,*57
1509232020.77,36144,9.13,72080.3,-6.59,-7.23,-7.15,0,*5B
1509232022.0,36145,9.13,72036.3,-6.57,-7.23,-7.15,0,*54
1509232023.23,36146,9.13,72038.3,-6.57,-7.15,-7.15,0,*52
1509232024.46,36147,9.13,72070.5,-6.57,-7.15,-7.15,0,*53
1509232025.69,36148,9.13,72080.3,-6.57,-7.15,-7.15,0,*5C
1509232026.92,36149,9.13,72102.0,-6.57,-7.23,-7.15,0,*58
1509232028.13,36150,9.13,72096.0,-6.59,-7.23,-7.11,0,*5A
1509232029.36,36151,9.06,72112.8,-6.57,-7.23,-7.15,0,*51
1509232030.59,36152,9.13,72132.8,-6.57,-7.15,-7.15,0,*57
1509232031.8,36153,9.13,72118.5,-6.59,-7.15,-7.11,0,*5C
1509232033.0,36154,9.13,72130.5,-6.59,-7.15,-7.15,0,*5F
1509232034.23,36155,9.13,72136.8,-6.57,-7.15,-7.11,0,*54
1509232035.46,36156,9.13,72120.8,-6.57,-7.15,-7.15,0,*53
1509232036.7,36157,9.13,72086.3,-6.57,-7.15,-7.11,0,*56
1509232037.93,36158,9.13,72040.8,-6.57,-7.15,-7.15,0,*5D
1509232039.13,36159,9.13,72024.5,-6.59,-7.11,-7.15,0,*56
1509232040.36,36160,9.13,72036.5,-6.57,-7.23,-7.15,0,*53
1509232041.59,36161,9.13,72068.3,-6.57,-7.15,-7.15,0,*57
1509232042.82,36162,9.13,72102.3,-6.57,-7.15,-7.15,0,*54
1509232044.03,36163,9.13,72090.5,-6.59,-7.23,-7.15,0,*5E
1509232045.26,36164,9.13,72084.0,-6.57,-7.15,-7.15,0,*52
1509232046.49,36165,9.13,72102.0,-6.57,-7.15,-7.15,0,*53
1509232047.72,36166,9.13,72100.0,-6.57,-7.15,-7.23,0,*55
1509232048.95,36167,9.13,72086.3,-6.57,-7.15,-7.15,0,*51
1509232050.15,36168,9.13,72054.3,-6.59,-7.23,-7.15,0,*55
1509232051.38,36169,9.13,72072.5,-6.57,-7.15,-7.15,0,*5F
1509232052.62,36170,9.13,72094.5,-6.57,-7.15,-7.11,0,*53
1509232053.82,36171,9.13,72086.3,-6.59,-7.15,-7.15,0,*58
1509232055.02,36172,9.13,72096.8,-6.59,-7.23,-7.15,0,*5E
1509232056.25,36173,9.13,72118.8,-6.57,-7.23,-7.15,0,*51
1509232057.46,36174,9.13,72140.0,-6.59,-7.23,-7.15,0,*58
1509232058.68,36175,9.13,72132.0,-6.57,-7.23,-7.15,0,*57
1509232059.92,36176,9.13,72136.3,-6.57,-7.15,-7.15,0,*51
1509232061.14,36177,9.13,72134.8,-6.57,-7.15,-7.15,0,*50
1509232062.35,36178,9.13,72108.5,-6.59,-7.23,-7.15,0,*54
1509232063.58,36179,9.13,72094.0,-6.57,-7.15,-7.11,0,*5A
1509232064.81,36180,9.13,72076.5,-6.57,-7.15,-7.15,0,*58
1509232066.04,36181,9.13,72062.3,-6.57,-7.23,-7.15,0,*5C
1509232067.27,36182,9.13,72068.0,-6.57,-7.15,-7.15,0,*5A
1509232068.5,36183,9.13,72068.5,-6.57,-7.15,-7.15,0,*5B
1509232069.71,36184,9.13,72082.3,-6.59,-7.23,-7.23,0,*52
1509232070.91,36185,9.13,72106.8,-6.59,-7.15,-7.15,0,*53
1509232072.14,36186,9.13,72118.0,-6.57,-7.15,-7.15,0,*5E
1509232073.37,36187,9.13,72128.8,-6.57,-7.15,-7.15,0,*5F
1509232074.57,36188,9.13,72124.8,-6.59,-7.15,-7.15,0,*5E
1509232075.8,36189,9.13,72114.5,-6.57,-7.15,-7.15,0,*51
1509232077.01,36190,9.13,72110.0,-6.59,-7.15,-7.11,0,*53
1509232078.24,36191,9.13,72086.3,-6.57,-7.23,-7.15,0,*5D
1509232079.47,36192,9.13,72088.5,-6.57,-7.15,-7.15,0,*5B
1509232080.67,36193,9.13,72096.5,-6.59,-7.15,-7.15,0,*54
1509232081.88,36194,9.13,72074.0,-6.59,-7.15,-7.11,0,*57
1509232083.09,36195,9.13,72048.8,-6.59,-7.15,-7.11,0,*56
1509232084.29,36196,9.13,72090.8,-6.59,-7.15,-7.23,0,*54
1509232085.52,36197,9.13,72078.5,-6.57,-7.15,-7.15,0,*5E
1509232086.73,36198,9.13,72078.5,-6.59,-7.15,-7.15,0,*5F
1509232087.94,36199,9.13,72124.3,-6.59,-7.11,-7.15,0,*5A
1509232089.17,36200,9.13,72104.5,-6.57,-7.23,-7.11,0,*52
1509232090.4,36201,9.13,72114.8,-6.57,-7.15,-7.15,0,*52
1509232091.63,36202,9.13,72126.3,-6.57,-7.15,-7.15,0,*51
1509232092.83,36203,9.13,72128.0,-6.59,-7.15,-7.15,0,*5E
1509232094.06,36204,9.13,72142.5,-6.57,-7.11,-7.15,0,*53
1509232095.29,36205,9.13,72132.0,-6.57,-7.15,-7.15,0,*56
1509232096.52,36206,9.13,72134.5,-6.57,-7.15,-7.15,0,*55
1509232097.76,36207,9.13,72136.0,-6.57,-7.11,-7.15,0,*50
1509232098.96,36208,9.13,72132.0,-6.59,-7.15,-7.15,0,*55
1509232100.19,36209,9.13,72130.8,-6.57,-7.23,-7.11,0,*5B
1509232101.42,36210,9.13,72136.3,-6.57,-7.15,-7.15,0,*52
1509232102.65,36211,9.13,72140.8,-6.57,-7.15,-7.15,0,*53
1509232103.89,36212,9.13,72122.8,-6.57,-7.15,-7.11,0,*54
1509232105.12,36213,9.13,72116.3,-6.57,-7.15,-7.15,0,*51
1509232106.35,36214,9.13,72090.5,-6.57,-7.23,-7.15,0,*53
1509232107.58,36215,9.13,72068.8,-6.57,-7.11,-7.15,0,*53
1509232108.81,36216,9.13,72052.8,-6.57,-7.15,-7.15,0,*54
1509232110.04,36217,9.13,72056.0,-6.57,-7.15,-7.15,0,*55
1509232111.27,36218,9.13,72124.8,-6.57,-7.15,-7.15,0,*5A
1509232112.47,36219,9.13,72132.0,-6.59,-7.15,-7.15,0,*55
1509232113.7,36220,9.13,72126.0,-6.57,-7.15,-7.11,0,*55
1509232114.91,36221,9.13,72122.0,-6.59,-7.15,-7.15,0,*5E
1509232116.14,36222,9.13,72124.3,-6.57,-7.15,-7.11,0,*57